Date String (YYYY-MM-DD hh:mm:ss) UTC,Instrument flags,absolute air pressure of the measurement (hPa),sample flow rate (lpm),inlet stack bypass flow (lpm),air temperature of the measurement (°C),ambient temperature measured by the external sensor (°C),aerosol sample conditioner tube jacket temperature (°C),OPC LED temperature (°C),internal box temperature (°C),relative humidity of the measurement (%),span deviation,mass concentration of particles derived from Lorenz-Mie calculation of OPC scattering (μg/m³),mass concentration of particles derived from Lorenz-Mie calculation of OPC scattering (μg/m³),mass concentration of particles derived from Lorenz-Mie calculation of OPC scattering (μg/m³)
DateTimeUTC,F1_M11,P_M11,Q1_M11,Q2_M11,T1_M11,T2_M11,T3_M11,T4_M11,T5_M11,U1_M11,ZSPAN_M11,X2_M11,X0_M11,X1_M11
2023-11-04 04:00:00,SystemResetWarning,0834.1,5.01,000.00,028.2,027.1,000.0,036.6,029.5,14.0,0000.0,0002.37,0009.52,0001.39
2023-11-04 04:01:00,SystemResetWarning,0834.1,5.01,000.00,028.2,027.1,000.0,036.6,029.5,13.9,0000.0,0002.36,0009.47,0001.38
2023-11-04 04:02:00,SystemResetWarning,0834.1,5.00,000.00,028.2,027.1,000.0,036.6,029.5,13.9,0000.0,0002.27,0009.56,0001.38
2023-11-04 04:03:00,SystemResetWarning,0834.1,4.99,000.00,028.2,027.0,000.0,036.6,029.5,13.9,0000.0,0002.21,0009.33,0001.37
2023-11-04 04:04:00,SystemResetWarning,0834.1,4.99,000.00,028.2,027.0,000.0,036.6,029.5,14.0,0000.0,0002.18,0009.05,0001.36
2023-11-04 04:05:00,SystemResetWarning,0834.1,5.00,000.00,028.2,027.0,000.0,036.6,029.5,14.0,0000.0,0002.18,0009.46,0001.36
2023-11-04 04:06:00,SystemResetWarning,0834.1,5.01,000.00,028.2,027.0,000.0,036.6,029.5,14.1,0000.0,0002.13,0009.63,0001.36
2023-11-04 04:07:00,SystemResetWarning,0834.1,5.00,000.00,028.2,027.0,000.0,036.6,029.5,14.0,0000.0,0002.18,0009.93,0001.36
2023-11-04 04:08:00,SystemResetWarning,0834.1,5.00,000.00,028.2,027.0,000.0,036.6,029.5,14.0,0000.0,0002.18,0009.79,0001.35
2023-11-04 04:09:00,SystemResetWarning,0834.1,5.00,000.00,028.2,027.0,000.0,036.6,029.5,13.9,0000.0,0002.17,0010.14,0001.33
2023-11-04 04:10:00,SystemResetWarning,0834.1,5.01,000.00,028.2,027.0,000.0,036.6,029.6,13.9,0000.0,0002.20,0009.77,0001.34
2023-11-04 04:11:00,SystemResetWarning,0834.1,5.00,000.00,028.2,027.0,000.0,036.6,029.6,13.9,0000.0,0002.19,0010.31,0001.35
2023-11-04 04:12:00,SystemResetWarning,0834.1,5.00,000.00,028.2,027.0,000.0,036.6,029.5,13.9,0000.0,0002.18,0010.71,0001.34
2023-11-04 04:13:00,SystemResetWarning,0834.1,4.98,000.00,028.2,027.0,000.0,036.6,029.5,13.9,0000.0,0002.22,0010.60,0001.34
2023-11-04 04:14:00,SystemResetWarning,0834.1,5.00,000.00,028.2,027.0,000.0,036.6,029.5,13.9,0000.0,0002.24,0010.73,0001.34
2023-11-04 04:15:00,SystemResetWarning,0834.1,5.00,000.00,028.2,027.0,000.0,036.6,029.5,14.0,0000.0,0002.23,0010.81,0001.34
2023-11-04 04:16:00,SystemResetWarning,0834.1,5.01,000.00,028.2,027.0,000.0,036.6,029.5,14.0,0000.0,0002.21,0010.05,0001.33
2023-11-04 04:17:00,SystemResetWarning,0834.1,5.01,000.00,028.2,027.0,000.0,036.6,029.5,14.0,0000.0,0002.22,0009.36,0001.32
2023-11-04 04:18:00,SystemResetWarning,0834.2,5.00,000.00,028.2,027.0,000.0,036.6,029.5,14.0,0000.0,0002.09,0008.00,0001.29
2023-11-04 04:19:00,SystemResetWarning,0834.1,4.99,000.00,028.2,027.0,000.0,036.6,029.5,14.0,0000.0,0002.06,0007.79,0001.29
2023-11-04 04:20:00,SystemResetWarning,0834.1,4.99,000.00,028.1,027.0,000.0,036.6,029.5,14.0,0000.0,0002.05,0007.13,0001.30
2023-11-04 04:21:00,SystemResetWarning,0834.1,5.01,000.00,028.1,027.0,000.0,036.6,029.5,14.0,0000.0,0001.95,0006.39,0001.29
2023-11-04 04:22:00,SystemResetWarning,0834.1,5.01,000.00,028.1,027.0,000.0,036.6,029.5,14.0,0000.0,0001.95,0005.33,0001.29
2023-11-04 04:23:00,SystemResetWarning,0834.1,5.00,000.00,028.1,027.0,000.0,036.6,029.5,14.0,0000.0,0001.96,0004.70,0001.28
2023-11-04 04:24:00,SystemResetWarning,0834.1,5.00,000.00,028.1,027.0,000.0,036.5,029.5,14.0,0000.0,0001.93,0004.51,0001.27
2023-11-04 04:25:00,SystemResetWarning,0834.1,5.00,000.00,028.1,027.0,000.0,036.5,029.5,13.9,0000.0,0001.95,0004.49,0001.25
2023-11-04 04:26:00,SystemResetWarning,0834.1,5.00,000.00,028.1,027.0,000.0,036.5,029.5,14.0,0000.0,0001.93,0004.39,0001.25
2023-11-04 04:27:00,SystemResetWarning,0834.1,5.00,000.00,028.1,027.0,000.0,036.5,029.5,14.0,0000.0,0001.94,0004.91,0001.25
2023-11-04 04:28:00,SystemResetWarning,0834.1,5.00,000.00,028.1,027.0,000.0,036.5,029.5,14.0,0000.0,0001.91,0004.88,0001.24
2023-11-04 04:29:00,SystemResetWarning,0834.1,5.00,000.00,028.1,027.0,000.0,036.5,029.5,14.1,0000.0,0001.91,0004.93,0001.24
2023-11-04 04:30:00,SystemResetWarning,0834.1,5.00,000.00,028.1,027.0,000.0,036.5,029.5,14.2,0000.0,0001.88,0004.85,0001.24
2023-11-04 04:31:00,SystemResetWarning,0834.1,5.00,000.00,028.1,027.0,000.0,036.5,029.5,14.1,0000.0,0001.82,0004.71,0001.23
2023-11-04 04:32:00,SystemResetWarning,0834.1,5.00,000.00,028.1,026.9,000.0,036.5,029.5,14.1,0000.0,0001.84,0004.49,0001.23
2023-11-04 04:33:00,SystemResetWarning,0834.1,5.00,000.00,028.1,026.9,000.0,036.5,029.5,14.1,0000.0,0001.83,0004.61,0001.23
2023-11-04 04:34:00,SystemResetWarning,0834.1,5.00,000.00,028.1,026.9,000.0,036.5,029.4,14.2,0000.0,0001.83,0004.86,0001.22
2023-11-04 04:35:00,SystemResetWarning,0834.1,5.00,000.00,028.1,026.9,000.0,036.5,029.4,14.2,0000.0,0001.92,0005.04,0001.22
2023-11-04 04:36:00,SystemResetWarning,0834.1,5.00,000.00,028.1,026.9,000.0,036.5,029.4,14.2,0000.0,0001.98,0005.49,0001.23
2023-11-04 04:37:00,SystemResetWarning,0834.1,5.00,000.00,028.1,026.9,000.0,036.5,029.4,14.1,0000.0,0002.00,0005.71,0001.23
2023-11-04 04:38:00,SystemResetWarning,0834.1,5.00,000.00,028.1,026.9,000.0,036.5,029.4,14.1,0000.0,0001.97,0005.08,0001.23
2023-11-04 04:39:00,SystemResetWarning,0834.1,5.00,000.00,028.1,026.9,000.0,036.5,029.4,14.1,0000.0,0001.97,0005.14,0001.23
2023-11-04 04:40:00,SystemResetWarning,0834.1,5.00,000.00,028.1,026.9,000.0,036.5,029.4,14.0,0000.0,0001.96,0005.80,0001.22
2023-11-04 04:41:00,SystemResetWarning,0834.1,5.00,000.00,028.1,026.9,000.0,036.5,029.5,14.1,0000.0,0002.00,0007.18,0001.22
2023-11-04 04:42:00,SystemResetWarning,0834.1,5.00,000.00,028.1,026.9,000.0,036.5,029.5,14.1,0000.0,0002.02,0007.86,0001.22
2023-11-04 04:43:00,SystemResetWarning,0834.1,5.00,000.00,028.1,026.8,000.0,036.5,029.4,14.1,0000.0,0002.00,0007.90,0001.22
2023-11-04 04:44:00,SystemResetWarning,0834.2,4.99,000.00,028.1,026.8,000.0,036.5,029.4,14.2,0000.0,0001.99,0007.82,0001.21
2023-11-04 04:45:00,SystemResetWarning,0834.1,4.99,000.00,028.0,026.8,000.0,036.5,029.4,14.1,0000.0,0001.98,0007.92,0001.22
2023-11-04 04:46:00,SystemResetWarning,0834.1,5.00,000.00,028.0,026.8,000.0,036.5,029.4,14.1,0000.0,0001.91,0007.98,0001.22
2023-11-04 04:47:00,SystemResetWarning,0834.1,5.00,000.00,028.0,026.8,000.0,036.5,029.4,14.2,0000.0,0001.82,0007.75,0001.21
2023-11-04 04:48:00,SystemResetWarning,0834.1,5.00,000.00,028.0,026.8,000.0,036.5,029.4,14.1,0000.0,0001.74,0007.43,0001.20
2023-11-04 04:49:00,SystemResetWarning,0834.1,5.00,000.00,028.0,026.8,000.0,036.5,029.4,14.0,0000.0,0001.71,0007.47,0001.19
2023-11-04 04:50:00,SystemResetWarning,0834.1,5.00,000.00,028.0,026.8,000.0,036.5,029.4,14.0,0000.0,0001.69,0007.67,0001.17
2023-11-04 04:51:00,SystemResetWarning,0834.1,5.00,000.00,028.0,026.8,000.0,036.5,029.4,14.0,0000.0,0001.72,0008.01,0001.17
2023-11-04 04:52:00,SystemResetWarning,0834.1,5.00,000.00,028.0,026.8,000.0,036.5,029.4,14.1,0000.0,0001.69,0006.95,0001.16
2023-11-04 04:53:00,SystemResetWarning,0834.1,5.00,000.00,028.0,026.8,000.0,036.4,029.3,14.1,0000.0,0001.71,0006.91,0001.13
2023-11-04 04:54:00,SystemResetWarning,0834.1,5.00,000.00,028.0,026.8,000.0,036.4,029.3,14.1,0000.0,0001.75,0007.89,0001.13
2023-11-04 04:55:00,SystemResetWarning,0834.1,4.99,000.00,028.0,026.8,000.0,036.4,029.3,14.1,0000.0,0001.74,0007.99,0001.12
2023-11-04 04:56:00,SystemResetWarning,0834.1,5.00,000.00,028.0,026.8,000.0,036.4,029.3,14.2,0000.0,0001.69,0007.82,0001.11
2023-11-04 04:57:00,SystemResetWarning,0834.1,5.00,000.00,028.0,026.8,000.0,036.4,029.3,14.2,0000.0,0001.64,0007.66,0001.10
2023-11-04 04:58:00,SystemResetWarning,0834.0,5.01,000.00,028.0,026.8,000.0,036.4,029.3,14.2,0000.0,0001.60,0007.71,0001.09
2023-11-04 04:59:00,SystemResetWarning,0834.1,5.00,000.00,028.0,026.8,000.0,036.4,029.3,14.2,0000.0,0001.64,0007.99,0001.09
